GW2412 Weather Reports


time (UTC)temp
F
wind
direction
speed
knots
gust
knots
rain 1hr
in
rain 24hr
in
rain mn
in
humidity
%
barometer
mb
20260503014017 58 101 2.6 5.2 0.00 0.00 0.00 1 1016.3
20260503013517 59 101 2.6 6.1 0.00 0.00 0.00 1 1016.1
20260503013058 59 101 4.3 6.1 0.00 0.00 0.00 1 1016.2
20260503012521 60 101 4.3 6.1 0.00 0.00 0.00 1 1016.2
20260503012016 60 101 2.6 6.1 0.00 0.00 0.00 1 1016.5
20260503011820 60 101 2.6 6.1 0.00 0.00 0.00 1 1016.4
20260503011020 60 101 2.6 6.1 0.00 0.00 0.00 1 1016.4
20260503010514 60 105 3.5 6.1 0.00 0.00 0.00 1 1016.4
20260503010050 61 94 2.6 7.0 0.00 0.00 0.00 1 1016.5
20260503005516 61 95 4.3 7.8 0.00 0.00 0.00 1 1016.5
20260503005018 61 98 5.2 7.8 0.00 0.00 0.00 1 1016.5
20260503004550 60 101 6.1 7.8 0.00 0.00 0.00 1 1016.4
20260503004017 60 117 4.3 7.0 0.00 0.00 0.00 1 1016.7
20260503003515 60 98 5.2 7.0 0.00 0.00 0.00 1 1016.8
20260503003050 60 110 4.3 7.8 0.00 0.00 0.00 1 1016.8
20260503002518 60 94 6.1 7.8 0.00 0.00 0.00 1 1016.8
20260503002018 60 105 5.2 7.0 0.00 0.00 0.00 1 1016.7
20260503001543 60 105 3.5 7.0 0.00 0.00 0.00 1 1016.8
20260503001017 60 97 4.3 6.1 0.00 0.00 0.00 1 1017.1
20260503000514 61 97 3.5 6.1 0.00 0.00 0.00 1 1017.2
20260503000058 62 246 0.0 4.3 0.00 0.00 0.00 1 1017.2
20260502235517 62 246 0.9 7.8 0.00 0.00 0.00 1 1017.1
20260502235010 62 234 3.5 7.8 0.00 0.00 0.00 1 1017.2
20260502234554 62 225 3.5 7.0 0.00 0.00 0.00 1 1017.1
20260502234017 62 244 1.7 6.1 0.00 0.00 0.00 1 1017.2
20260502233516 62 130 1.7 7.0 0.00 0.00 0.00 1 1017.1
20260502233050 62 146 3.5 7.0 0.00 0.00 0.00 1 1017.2
20260502232514 63 228 2.6 7.8 0.00 0.00 0.00 1 1017.2
20260502232016 63 51 0.0 10.4 0.00 0.00 0.00 1 1017.1
20260502231551 62 313 2.6 10.4 0.00 0.00 0.00 1 1017.1
20260502231016 63 29 3.5 7.8 0.00 0.00 0.00 1 1017.4
20260502230516 63 311 0.9 11.3 0.00 0.00 0.00 1 1017.4
20260502230450 64 330 7.0 11.3 0.00 0.00 0.00 1 1017.5
20260502225512 64 165 1.7 9.6 0.00 0.00 0.00 1 1017.5
20260502225016 64 199 0.9 9.6 0.00 0.00 0.00 1 1017.6
20260502224557 63 279 3.5 7.0 0.00 0.00 0.00 1 1017.5
20260502224016 62 153 0.9 6.1 0.00 0.00 0.00 1 1017.5
20260502223515 63 196 0.9 5.2 0.00 0.00 0.00 1 1017.6
20260502223052 62 225 2.6 11.3 0.00 0.00 0.00 1 1017.8
20260502222519 62 275 4.3 11.3 0.00 0.00 0.00 1 1017.8
20260502222021 62 257 5.2 10.4 0.00 0.00 0.00 1 1018.0
20260502221549 62 232 7.0 13.0 0.00 0.00 0.00 1 1018.0
20260502221015 62 291 9.6 13.0 0.00 0.00 0.00 1 1018.1
20260502220517 62 322 3.5 11.3 0.00 0.00 0.00 1 1018.1
20260502220150 62 355 6.1 13.0 0.00 0.00 0.00 1 1018.1
20260502215515 62 355 1.7 7.0 0.00 0.00 0.00 1 1018.4
20260502215015 61 109 2.6 6.1 0.00 0.00 0.00 1 1018.6
20260502214552 61 246 0.9 10.4 0.00 0.00 0.00 1 1018.5
20260502214021 61 355 6.1 10.4 0.00 0.00 0.00 1 1018.6
20260502213518 61 16 7.0 10.4 0.00 0.00 0.00 1 1018.7
20260502213107 61 304 2.6 11.3 0.00 0.00 0.00 1 1018.7
20260502212511 60 329 8.7 11.3 0.00 0.00 0.00 1 1018.7
20260502212046 61 342 3.5 9.6 0.00 0.00 0.00 1 1018.9
20260502211557 61 309 2.6 10.4 0.00 0.00 0.00 1 1019.0
20260502211015 61 266 6.1 10.4 0.00 0.00 0.00 1 1019.1
20260502210534 60 257 7.8 10.4 0.00 0.00 0.00 1 1019.0
20260502210057 60 270 0.9 7.0 0.00 0.00 0.00 1 1019.1
20260502205515 61 269 2.6 8.7 0.00 0.00 0.00 1 1019.2
20260502205016 61 285 3.5 8.7 0.00 0.00 0.00 1 1019.3
20260502204601 61 298 3.5 8.7 0.00 0.00 0.00 1 1019.2
20260502204007 60 10 3.5 7.8 0.00 0.00 0.00 1 1019.0
20260502203521 59 32 1.7 7.8 0.00 0.00 0.00 1 1019.1
20260502203101 59 291 2.6 7.8 0.00 0.00 0.00 1 1019.3
20260502202517 59 286 3.5 9.6 0.00 0.00 0.00 1 1019.3
20260502202015 59 344 6.1 9.6 0.00 0.00 0.00 1 1019.5
20260502201545 60 274 4.3 8.7 0.00 0.00 0.00 1 1019.5
20260502201014 60 303 3.5 10.4 0.00 0.00 0.00 1 1019.5
20260502200515 60 316 2.6 14.8 0.00 0.00 0.00 1 1019.6
20260502200048 60 286 4.3 11.3 0.00 0.00 0.00 1 1019.6
20260502195514 59 296 4.3 9.6 0.00 0.00 0.00 1 1019.5
20260502195015 59 318 2.6 11.3 0.00 0.00 0.00 1 1019.5
20260502194553 59 355 7.0 12.2 0.00 0.00 0.00 1 1019.6
20260502194028 59 292 8.7 12.2 0.00 0.00 0.00 1 1019.6
20260502193515 59 17 1.7 12.2 0.00 0.00 0.00 1 1019.7
20260502193039 59 54 5.2 13.0 0.00 0.00 0.00 1 1019.6
20260502192519 59 5 7.0 11.3 0.00 0.00 0.00 1 1019.7
20260502192016 58 311 7.0 13.9 0.00 0.00 0.00 1 1019.8
20260502191542 58 277 8.7 13.9 0.00 0.00 0.00 1 1019.7
20260502191013 58 301 9.6 13.0 0.00 0.00 0.00 1 1019.9
20260502190515 58 324 9.6 13.0 0.00 0.00 0.00 1 1019.7
20260502190026 57 345 9.6 13.9 0.00 0.00 0.00 1 1019.9
20260502185518 57 346 9.6 13.9 0.00 0.00 0.00 1 1020.0
20260502185017 58 5 7.8 14.8 0.00 0.00 0.00 1 1020.0
20260502184606 57 350 11.3 14.8 0.00 0.00 0.00 1 1019.8
20260502184022 57 332 11.3 14.8 0.00 0.00 0.00 1 1019.9
20260502183519 57 331 11.3 14.8 0.00 0.00 0.00 1 1019.8
20260502183108 57 350 9.6 15.6 0.00 0.00 0.00 1 1019.9
20260502182524 58 341 10.4 13.9 0.00 0.00 0.00 1 1019.9
20260502182024 58 332 9.6 14.8 0.00 0.00 0.00 1 1020.0
20260502181608 57 292 9.6 14.8 0.00 0.00 0.00 1 1020.1
20260502181019 58 325 10.4 15.6 0.00 0.00 0.00 1 1020.0
20260502180522 57 338 11.3 15.6 0.00 0.00 0.00 1 1020.1
20260502170518 58 331 12.2 19.1 0.00 0.00 0.00 1 1020.2
20260502164017 57 327 15.6 19.1 0.00 0.00 0.00 1 1019.9
20260502163516 57 333 14.8 20.0 0.00 0.00 0.00 1 1019.9
20260502163106 57 331 13.9 20.0 0.00 0.00 0.00 1 1019.9
20260502162519 57 344 14.8 19.1 0.00 0.00 0.00 1 1019.9
20260502162020 57 317 13.9 20.9 0.00 0.00 0.00 1 1019.9
20260502161551 56 335 15.6 20.9 0.00 0.00 0.00 1 1019.9
20260502161027 56 339 14.8 20.9 0.00 0.00 0.00 1 1019.7
20260502160518 57 320 16.5 20.9 0.00 0.00 0.00 1 1019.5
20260502152017 57 348 17.4 23.5 0.00 0.00 0.00 1 1019.5
20260502151539 56 338 16.5 23.5 0.00 0.00 0.00 1 1019.5
20260502151015 56 345 15.6 23.5 0.00 0.00 0.00 1 1019.8
20260502150517 56 355 17.4 23.5 0.00 0.00 0.00 1 1019.5
20260502150311 56 336 14.8 21.7 0.00 0.00 0.00 1 1019.6
20260502130519 52 59 8.7 14.8 0.00 0.00 0.00 1 1019.5
20260502123516 51 37 11.3 14.8 0.00 0.00 0.00 1 1018.9
20260502123045 51 31 10.4 17.4 0.00 0.00 0.00 1 1018.9
20260502122515 51 46 12.2 19.1 0.00 0.00 0.00 1 1018.7
20260502122016 51 39 13.9 19.1 0.00 0.00 0.00 1 1018.6
20260502121551 50 32 14.8 18.2 0.00 0.00 0.00 1 1018.8
20260502121017 50 31 13.0 17.4 0.00 0.00 0.00 1 1018.6
20260502120517 50 32 13.0 20.9 0.00 0.00 0.00 1 1018.6
20260502115519 50 43 14.8 21.7 0.00 0.00 0.00 1 1018.4
20260502115017 50 36 15.6 21.7 0.00 0.00 0.00 1 1018.1
20260502114554 50 51 14.8 21.7 0.00 0.00 0.00 1 1018.4
20260502114017 50 44 16.5 21.7 0.00 0.00 0.00 1 1018.3
20260502113517 50 54 16.5 21.7 0.00 0.00 0.00 1 1018.2
20260502113056 50 50 16.5 23.5 0.00 0.00 0.00 1 1018.1
20260502112514 51 64 15.6 25.2 0.00 0.00 0.00 1 1018.1
20260502112016 51 56 17.4 25.2 0.00 0.00 0.00 1 1018.0
20260502111554 51 55 18.2 25.2 0.00 0.00 0.00 1 1017.8
20260502111056 51 47 19.1 25.2 0.00 0.00 0.00 1 1017.9
20260502110515 51 45 19.1 24.3 0.00 0.00 0.00 1 1017.6
20260502110105 51 46 17.4 24.3 0.00 0.00 0.00 1 1017.7
20260502105529 51 40 18.2 24.3 0.00 0.00 0.00 1 1017.4
20260502105015 51 48 17.4 24.3 0.00 0.00 0.00 1 1017.6
20260502104553 51 45 17.4 24.3 0.00 0.00 0.00 1 1017.4
20260502104029 51 36 17.4 24.3 0.00 0.00 0.00 1 1017.4
20260502103518 51 55 16.5 22.6 0.00 0.00 0.00 1 1017.4
20260502103057 51 43 15.6 20.9 0.00 0.00 0.00 1 1017.3
20260502102517 51 35 16.5 20.9 0.00 0.00 0.00 1 1017.4
20260502102019 51 58 15.6 21.7 0.00 0.00 0.00 1 1017.3
20260502101819 51 56 13.9 21.7 0.00 0.00 0.00 1 1017.2
20260502101019 52 42 14.8 19.1 0.00 0.00 0.00 1 1017.1
20260502100518 52 57 13.0 20.9 0.00 0.00 0.00 1 1017.2
20260502091014 50 339 4.3 9.6 0.00 0.00 0.00 1 1016.4
20260502090513 50 336 7.0 10.4 0.00 0.00 0.00 1 1016.3
20260502071018 48 327 4.3 7.8 0.00 0.00 0.00 1 1016.4
20260502070527 48 338 3.5 8.7 0.00 0.00 0.00 1 1016.5
20260502070057 49 326 3.5 7.8 0.00 0.00 0.00 1 1016.4
20260502065513 50 338 3.5 8.7 0.00 0.00 0.00 1 1016.5
20260502065016 49 324 6.1 8.7 0.00 0.00 0.00 1 1016.2
20260502064545 48 336 2.6 8.7 0.00 0.00 0.00 1 1016.2
20260502064013 48 338 4.3 8.7 0.00 0.00 0.00 1 1016.3
20260502063517 46 344 5.2 8.7 0.00 0.00 0.00 1 1016.3
20260502063045 45 344 3.5 7.0 0.00 0.00 0.00 1 1016.2
20260502062515 45 355 3.5 5.2 0.00 0.00 0.00 1 1016.2
20260502062017 45 355 4.3 7.0 0.00 0.00 0.00 1 1016.3
20260502061543 45 360 4.3 7.0 0.00 0.00 0.00 1 1016.2
20260502061014 45 360 4.3 7.0 0.00 0.00 0.00 1 1016.4
20260502060513 45 346 3.5 7.8 0.00 0.00 0.00 1 1016.3
20260502060040 46 360 6.1 8.7 0.00 0.00 0.00 1 1016.3
20260502055514 46 344 7.0 8.7 0.00 0.00 0.00 1 1016.3
20260502055014 47 325 6.1 9.6 0.00 0.00 0.00 1 1016.2
20260502054540 46 336 7.8 9.6 0.00 0.00 0.00 1 1016.3
20260502054013 45 317 7.8 9.6 0.00 0.00 0.00 1 1016.3
20260502053515 46 314 7.8 10.4 0.00 0.00 0.00 1 1016.5
20260502053038 47 336 8.7 10.4 0.00 0.00 0.00 1 1016.4
20260502052517 48 337 8.7 9.6 0.00 0.00 0.00 1 1016.3
20260502052028 48 333 8.7 9.6 0.00 0.00 0.00 1 1016.3
20260502051546 48 335 8.7 9.6 0.00 0.00 0.00 1 1016.4
20260502051007 49 327 7.8 10.4 0.00 0.00 0.00 1 1016.4
20260502050541 50 342 8.7 11.3 0.00 0.00 0.00 1 1016.3
20260502050053 50 344 9.6 11.3 0.00 0.00 0.00 1 1016.3
20260502045518 50 348 8.7 10.4 0.00 0.00 0.00 1 1016.2
20260502045019 50 340 7.8 8.7 0.00 0.00 0.00 1 1016.2
20260502044552 51 346 7.0 7.8 0.00 0.00 0.00 1 1016.3
20260502044016 54 319 6.1 8.7 0.00 0.00 0.00 1 1016.1
20260502043518 53 295 5.2 8.7 0.00 0.00 0.00 1 1016.1
20260502043059 53 307 7.0 8.7 0.00 0.00 0.00 1 1016.2
20260502042519 53 313 6.1 7.8 0.00 0.00 0.00 1 1016.1
20260502042021 53 308 7.0 8.7 0.00 0.00 0.00 1 1016.1
20260502041550 52 308 6.1 8.7 0.00 0.00 0.00 1 1016.1
20260502041016 51 304 5.2 7.8 0.00 0.00 0.00 1 1016.2
20260502040558 51 295 5.2 7.8 0.00 0.00 0.00 1 1016.2
20260502040048 51 288 6.1 7.8 0.00 0.00 0.00 1 1016.3
20260502035514 52 315 1.7 3.5 0.00 0.00 0.00 1 1016.1
20260502035013 53 315 0.0 3.5 0.00 0.00 0.00 1 1015.9
20260502034547 53 345 1.7 4.3 0.00 0.00 0.00 1 1016.0
20260502034019 54 9 3.5 4.3 0.00 0.00 0.00 1 1015.9
20260502033515 54 277 3.5 7.8 0.00 0.00 0.00 1 1015.9
20260502033054 55 296 4.3 7.8 0.00 0.00 0.00 1 1015.8
20260502032516 52 277 4.3 6.1 0.00 0.00 0.00 1 1015.8
20260502032015 53 282 4.3 7.8 0.00 0.00 0.00 1 1015.6
20260502031551 53 250 6.1 7.8 0.00 0.00 0.00 1 1015.7
20260502031016 54 292 3.5 6.1 0.00 0.00 0.00 1 1015.6
20260502030514 55 283 3.5 6.1 0.00 0.00 0.00 1 1015.5
20260502030053 55 260 3.5 6.1 0.00 0.00 0.00 1 1015.4
20260502025517 56 285 4.3 7.0 0.00 0.00 0.00 1 1015.2
20260502025016 57 279 6.1 7.0 0.00 0.00 0.00 1 1015.2
20260502024543 57 275 5.2 7.8 0.00 0.00 0.00 1 1015.3
20260502024016 58 270 5.2 7.8 0.00 0.00 0.00 1 1015.3
20260502023523 59 275 6.1 7.8 0.00 0.00 0.00 1 1015.2
20260502023109 59 263 5.2 7.0 0.00 0.00 0.00 1 1015.3
20260502022519 60 263 4.3 7.0 0.00 0.00 0.00 1 1015.2
20260502022019 61 263 5.2 7.0 0.00 0.00 0.00 1 1015.2
20260502021619 62 250 5.2 7.8 0.00 0.00 0.00 1 1015.3
20260502021020 63 247 6.1 7.8 0.00 0.00 0.00 1 1015.3
20260502020519 64 263 6.1 9.6 0.00 0.00 0.00 1 1015.2
20260502020108 64 252 7.0 9.6 0.00 0.00 0.00 1 1015.2
20260502015522 65 254 7.8 9.6 0.00 0.00 0.00 1 1015.2
20260502015021 65 247 7.8 9.6 0.00 0.00 0.00 1 1015.1
20260502014616 66 250 7.0 12.2 0.00 0.00 0.00 1 1015.0